Weather History for KTQE - November, 2014

Change the Weather History Date:

Monday, November 24, 2014

  Actual Average Record
Temperature  
Mean Temperature 30 °F -  
Max Temperature 37 °F 43 °F 68 °F (2011)
Min Temperature 23 °F 21 °F -4 °F (1950)
Degree Days  
Heating Degree Days 34    
Moisture  
Dew Point 16 °F    
Average Humidity 58    
Maximum Humidity 67    
Minimum Humidity 43    
Precipitation  
Precipitation 0.00 in - - ()
Sea Level Pressure  
Sea Level Pressure 29.78 in    
Wind  
Wind Speed 22 mph (NW)    
Max Wind Speed 29 mph    
Max Gust Speed 38 mph    
Visibility 10 miles    
Events      
Averages and records for this station are not official NWS values.
T = Trace of Precipitation, MM = Missing Value Source: NWS Daily Summary

Daily Weather History Graph

Daily Weather History Graph

Search for Another Location

Airport or City:

Trip Planner

Search our weather history database for the weather conditions in past years. The results will help you decide how hot, cold, wet, or windy it might be!

Date:

Astronomy

Nov. 24, 2014 Rise Set
Actual Time 7:24 AM CST 4:57 PM CST
Civil Twilight 6:54 AM CST 5:28 PM CST
Nautical Twilight 6:20 AM CST 6:02 PM CST
Astronomical Twilight 5:46 AM CST 6:35 PM CST
Moon 9:18 AM CST (11/24) 7:20 PM CST (11/24)
Length of Visible Light 10h 34m
Length of Day
9h 33m
Waxing Crescent, 6% of the Moon is Illuminated
Nov 24
Waxing Crescent
Nov 29
First Quarter
Dec 6
Full
Dec 14
Last Quarter
Dec 21
New

Hourly Weather History & Observations

Time (CST) Temp. Windchill Dew Point Humidity Pressure Visibility Wind Dir Wind Speed Gust Speed Precip Events Conditions
12:54 AM 32.0 °F 19.8 °F 21.9 °F 66% 29.54 in 10.0 mi NNW 20.7 mph 24.2 mph N/A   Overcast
1:08 AM 32.0 °F 19.2 °F 21.0 °F 64% 29.53 in 10.0 mi NNW 23.0 mph 31.1 mph N/A   Overcast
1:54 AM 30.9 °F 18.4 °F 21.0 °F 67% 29.55 in 10.0 mi NW 20.7 mph 34.5 mph N/A   Overcast
2:54 AM 30.0 °F 17.2 °F 19.9 °F 66% 29.57 in 10.0 mi NW 20.7 mph 31.1 mph N/A   Overcast
3:54 AM 28.9 °F 14.5 °F 17.1 °F 61% 29.58 in 10.0 mi NW 25.3 mph 33.4 mph N/A   Overcast
4:54 AM 28.0 °F 14.6 °F 18.0 °F 66% 29.60 in 10.0 mi NW 20.7 mph 26.5 mph N/A   Overcast
5:54 AM 28.0 °F 12.8 °F 17.1 °F 63% 29.61 in 10.0 mi NW 27.6 mph 35.7 mph N/A   Overcast
6:28 AM 27.0 °F 11.9 °F 16.0 °F 63% 29.62 in 10.0 mi NW 25.3 mph 35.7 mph N/A   Overcast
6:54 AM 27.0 °F 12.8 °F 15.1 °F 61% 29.65 in 10.0 mi NW 21.9 mph 32.2 mph N/A   Overcast
7:54 AM 27.0 °F 12.2 °F 16.0 °F 63% 29.67 in 10.0 mi NW 24.2 mph 35.7 mph N/A   Overcast
8:01 AM 27.0 °F 11.9 °F 16.0 °F 63% 29.66 in 10.0 mi NW 25.3 mph 33.4 mph N/A   Overcast
8:54 AM 28.0 °F 13.9 °F 17.1 °F 63% 29.70 in 10.0 mi NW 23.0 mph 34.5 mph N/A   Overcast
9:54 AM 28.0 °F 13.9 °F 17.1 °F 63% 29.73 in 10.0 mi NNW 23.0 mph 29.9 mph N/A   Overcast
10:54 AM 28.0 °F 14.9 °F 18.0 °F 66% 29.75 in 10.0 mi NW 19.6 mph 28.8 mph N/A   Overcast
11:54 AM 28.9 °F 15.4 °F 17.1 °F 61% 29.76 in 10.0 mi NW 21.9 mph - N/A   Overcast
12:54 PM 30.9 °F 17.2 °F 17.1 °F 57% 29.78 in 10.0 mi NW 25.3 mph 34.5 mph N/A   Overcast
1:12 PM 33.1 °F 19.3 °F 18.0 °F 54% 29.76 in 10.0 mi NW 28.8 mph 34.5 mph N/A   Mostly Cloudy
1:54 PM 35.1 °F 22.2 °F 18.0 °F 50% 29.79 in 10.0 mi NW 27.6 mph 34.5 mph N/A   Partly Cloudy
2:54 PM 37.0 °F 24.9 °F 17.1 °F 44% 29.81 in 10.0 mi WNW 27.6 mph 38.0 mph N/A   Clear
3:54 PM 35.1 °F 23.0 °F 15.1 °F 44% 29.86 in 10.0 mi NW 24.2 mph 34.5 mph N/A   Clear
4:54 PM 33.1 °F 19.8 °F 12.9 °F 43% 29.91 in 10.0 mi NW 26.5 mph 36.8 mph N/A   Clear
5:54 PM 30.9 °F 19.1 °F 12.9 °F 47% 29.96 in 10.0 mi NW 18.4 mph 26.5 mph N/A   Clear
6:54 PM 28.9 °F 16.5 °F 15.1 °F 56% 30.00 in 10.0 mi NW 18.4 mph 29.9 mph N/A   Clear
7:54 PM 27.0 °F 15.6 °F 15.1 °F 61% 30.04 in 10.0 mi NW 13.8 mph - N/A   Clear
8:54 PM 27.0 °F 14.7 °F 10.9 °F 51% 30.06 in 10.0 mi NW 16.1 mph - N/A   Clear
9:54 PM 25.0 °F 13.6 °F 8.1 °F 49% 30.10 in 10.0 mi NW 12.7 mph - N/A   Clear
10:54 PM 24.1 °F 10.6 °F 8.1 °F 51% 30.11 in 10.0 mi NW 17.3 mph - N/A   Clear
11:54 PM 23.0 °F 11.1 °F 7.0 °F 50% 30.13 in 10.0 mi NW 12.7 mph - N/A   Clear